EW6576 Weather Reports


Display with metric or nautical units.
time (UTC)temp
F
wind
direction
speed
MPH
gust
MPH
rain 1hr
in
rain 24hr
in
rain mn
in
humidity
%
barometer
mb
20260506185234 71 241 0.0 0.0 0.00 0.00 0.00 57 1017.5
20260506184731 71 125 3.0 5.0 0.00 0.00 0.00 58 1017.6
20260506184228 70 78 2.0 3.0 0.00 0.00 0.00 58 1017.7
20260506183725 71 142 3.0 5.0 0.00 0.00 0.00 57 1017.6
20260506183221 71 320 4.0 5.0 0.00 0.00 0.00 57 1017.6
20260506182718 71 312 7.0 9.0 0.00 0.00 0.00 56 1017.6
20260506182215 69 168 2.0 3.0 0.00 0.00 0.00 58 1017.7
20260506181713 69 175 1.0 1.0 0.00 0.00 0.00 58 1017.8
20260506181211 69 182 2.0 2.0 0.00 0.00 0.00 57 1017.8
20260506180707 70 306 3.0 5.0 0.00 0.00 0.00 57 1017.9
20260506180203 69 172 2.0 2.0 0.00 0.00 0.00 59 1018.0
20260506175700 69 130 0.0 1.0 0.00 0.00 0.00 58 1018.0
20260506175157 68 157 0.0 0.0 0.00 0.00 0.00 60 1018.0
20260506174654 69 306 2.0 2.0 0.00 0.00 0.00 58 1018.0
20260506174151 68 158 0.0 0.0 0.00 0.00 0.00 62 1018.2
20260506173649 68 131 1.0 2.0 0.00 0.00 0.00 61 1018.1
20260506173145 67 63 0.0 1.0 0.00 0.00 0.00 61 1018.0
20260506172642 68 182 3.0 3.0 0.00 0.00 0.00 59 1018.2
20260506172139 67 149 0.0 0.0 0.00 0.00 0.00 62 1018.1
20260506171631 67 164 2.0 2.0 0.00 0.00 0.00 63 1018.4
20260506171128 66 261 3.0 3.0 0.00 0.00 0.00 62 1018.3
20260506170625 66 230 0.0 1.0 0.00 0.00 0.00 63 1018.1
20260506170117 67 245 2.0 3.0 0.00 0.00 0.00 62 1018.2
20260506165615 67 305 1.0 1.0 0.00 0.00 0.00 60 1018.1
20260506165111 66 106 0.0 0.0 0.00 0.00 0.00 63 1018.3
20260506164608 66 63 0.0 1.0 0.00 0.00 0.00 65 1018.3
20260506164106 65 315 0.0 1.0 0.00 0.00 0.00 68 1018.5
20260506163601 64 340 1.0 1.0 0.00 0.00 0.00 69 1018.4
20260506163057 64 316 1.0 3.0 0.00 0.00 0.00 69 1018.4
20260506162553 64 222 1.0 1.0 0.00 0.00 0.00 70 1018.4
20260506162046 64 87 1.0 1.0 0.00 0.00 0.00 69 1018.4
20260506161543 64 289 2.0 3.0 0.00 0.00 0.00 70 1018.3
20260506161039 64 244 0.0 1.0 0.00 0.00 0.00 70 1018.5
20260506160537 63 158 0.0 0.0 0.00 0.00 0.00 71 1018.4
20260506160034 62 124 0.0 0.0 0.00 0.00 0.00 72 1018.4
20260506155533 62 98 2.0 2.0 0.00 0.00 0.00 72 1018.3
20260506153709 61 99 0.0 0.0 0.00 0.00 0.00 74 1018.5
20260506153207 62 9 0.0 1.0 0.00 0.00 0.00 74 1018.4
20260506152704 61 144 0.0 0.0 0.00 0.00 0.00 75 1018.4
20260506152201 60 156 0.0 0.0 0.00 0.00 0.00 75 1018.5
20260506151700 61 312 1.0 1.0 0.00 0.00 0.00 73 1018.2
20260506151156 61 274 0.0 1.0 0.00 0.00 0.00 73 1018.3
20260506150653 61 103 0.0 0.0 0.00 0.00 0.00 74 1018.5
20260506150150 59 126 0.0 0.0 0.00 0.00 0.00 78 1018.5
20260506145647 59 68 0.0 0.0 0.00 0.00 0.00 80 1018.6
20260506145143 57 179 0.0 0.0 0.00 0.00 0.00 88 1018.5
20260506144641 56 84 0.0 0.0 0.00 0.00 0.00 94 1018.7
20260506144137 55 141 0.0 0.0 0.00 0.00 0.00 97 1018.7
20260506143635 54 141 0.0 0.0 0.00 0.00 0.00 99 1018.5
20260506143133 53 164 0.0 0.0 0.00 0.00 0.00 99 1018.4
20260506142632 53 152 0.0 0.0 0.00 0.00 0.00 99 1018.4
20260506142129 52 152 0.0 0.0 0.00 0.00 0.00 99 1018.4
20260506141626 50 151 0.0 0.0 0.00 0.00 0.00 99 1018.2
20260506141125 50 152 0.0 0.0 0.00 0.00 0.00 99 1018.5
20260506140622 49 154 0.0 0.0 0.00 0.00 0.00 99 1018.6
20260506140119 49 156 0.0 0.0 0.00 0.00 0.00 99 1018.5
20260506135616 48 156 0.0 0.0 0.00 0.00 0.00 99 1018.4
20260506135112 48 172 0.0 0.0 0.00 0.00 0.00 99 1018.2
20260506134609 47 172 0.0 0.0 0.00 0.00 0.00 99 1018.3
20260506134104 47 172 0.0 0.0 0.00 0.00 0.00 99 1018.2
20260506133602 46 171 0.0 0.0 0.00 0.00 0.00 99 1018.1
20260506133059 46 171 0.0 0.0 0.00 0.00 0.00 99 1018.0
20260506132556 46 171 0.0 0.0 0.00 0.00 0.00 99 1018.1
20260506132053 46 171 0.0 0.0 0.00 0.00 0.00 99 1018.3
20260506131550 46 172 0.0 0.0 0.00 0.00 0.00 99 1018.2
20260506131047 46 171 0.0 0.0 0.00 0.00 0.00 99 1018.0
20260506130543 45 171 0.0 0.0 0.00 0.00 0.00 99 1017.8
20260506130041 45 171 0.0 0.0 0.00 0.00 0.00 99 1017.8
20260506125539 45 171 0.0 0.0 0.00 0.00 0.00 99 1017.9
20260506125037 45 171 0.0 0.0 0.00 0.00 0.00 99 1017.9
20260506124534 45 171 0.0 0.0 0.00 0.00 0.00 99 1017.9
20260506124032 45 171 0.0 0.0 0.00 0.00 0.00 99 1017.9
20260506123529 45 171 0.0 0.0 0.00 0.00 0.00 99 1017.6
20260506123028 46 171 0.0 0.0 0.00 0.00 0.00 99 1017.7
20260506122524 46 172 0.0 0.0 0.00 0.00 0.00 99 1017.7
20260506122022 46 171 0.0 0.0 0.00 0.00 0.00 99 1017.7
20260506121520 45 171 0.0 0.0 0.00 0.00 0.00 99 1017.6
20260506121015 45 171 0.0 0.0 0.00 0.00 0.00 99 1017.5
20260506120514 46 171 0.0 0.0 0.00 0.00 0.00 99 1017.8
20260506120011 45 171 0.0 0.0 0.00 0.00 0.00 99 1017.8
20260506115509 45 171 0.0 0.0 0.00 0.00 0.00 99 1017.5
20260506115007 46 171 0.0 0.0 0.00 0.00 0.00 99 1017.8
20260506114504 46 171 0.0 0.0 0.00 0.00 0.00 99 1017.6
20260506114002 47 171 0.0 0.0 0.00 0.00 0.00 99 1017.4
20260506113500 46 172 0.0 0.0 0.00 0.00 0.00 99 1017.5
20260506112956 46 171 0.0 0.0 0.00 0.00 0.00 99 1017.5
20260506112453 46 172 0.0 0.0 0.00 0.00 0.00 99 1017.4
20260506111950 46 171 0.0 0.0 0.00 0.00 0.00 99 1017.4
20260506111449 46 171 0.0 0.0 0.00 0.00 0.00 99 1017.6
20260506110945 46 171 0.0 0.0 0.00 0.00 0.00 99 1017.4
20260506110443 46 172 0.0 0.0 0.00 0.00 0.00 99 1017.5
20260506105939 47 171 0.0 0.0 0.00 0.00 0.00 99 1017.4
20260506105436 46 171 0.0 0.0 0.00 0.00 0.00 99 1017.5
20260506104933 46 171 0.0 0.0 0.00 0.00 0.00 99 1017.3
20260506104431 47 171 0.0 0.0 0.00 0.00 0.00 99 1017.5
20260506103930 47 171 0.0 0.0 0.00 0.00 0.00 99 1017.2
20260506103427 47 171 0.0 0.0 0.00 0.00 0.00 99 1017.5
20260506102924 47 171 0.0 0.0 0.00 0.00 0.00 99 1017.5
20260506102421 47 171 0.0 0.0 0.00 0.00 0.00 99 1017.5
20260506101918 47 172 0.0 0.0 0.00 0.00 0.00 99 1017.4
20260506101414 47 172 0.0 0.0 0.00 0.00 0.00 99 1017.4
20260506100912 47 172 0.0 0.0 0.00 0.00 0.00 99 1017.3
20260506100410 47 172 0.0 0.0 0.00 0.00 0.00 99 1017.3
20260506095908 47 172 0.0 0.0 0.00 0.00 0.00 99 1017.3
20260506095406 47 172 0.0 0.0 0.00 0.00 0.00 99 1017.3
20260506094902 47 172 0.0 0.0 0.00 0.00 0.00 98 1017.4
20260506094401 47 172 0.0 0.0 0.00 0.00 0.00 98 1017.2
20260506093858 47 172 0.0 0.0 0.00 0.00 0.00 98 1017.2
20260506093356 48 172 0.0 0.0 0.00 0.00 0.00 98 1017.3
20260506092853 48 172 0.0 0.0 0.00 0.00 0.00 98 1017.3
20260506092351 47 172 0.0 0.0 0.00 0.00 0.00 98 1017.4
20260506091847 48 172 0.0 0.0 0.00 0.00 0.00 98 1017.3
20260506091346 48 172 0.0 0.0 0.00 0.00 0.00 98 1017.4
20260506090842 48 172 0.0 0.0 0.00 0.00 0.00 98 1017.4
20260506090340 48 172 0.0 0.0 0.00 0.00 0.00 98 1017.5
20260506085837 48 172 0.0 0.0 0.00 0.00 0.00 98 1017.3
20260506085333 49 172 0.0 0.0 0.00 0.00 0.00 98 1017.4
20260506084830 49 172 0.0 0.0 0.00 0.00 0.00 98 1017.7
20260506084326 49 169 0.0 0.0 0.00 0.00 0.00 98 1017.7
20260506083823 48 125 0.0 0.0 0.00 0.00 0.00 98 1017.6
20260506083320 48 125 0.0 0.0 0.00 0.00 0.00 98 1017.6
20260506082818 48 125 0.0 0.0 0.00 0.00 0.00 98 1017.8
20260506082314 48 125 0.0 0.0 0.00 0.00 0.00 97 1018.0
20260506081810 49 125 0.0 0.0 0.00 0.00 0.00 97 1017.9
20260506081309 49 125 0.0 0.0 0.00 0.00 0.00 97 1017.6
20260506080806 49 125 0.0 0.0 0.00 0.00 0.00 97 1017.8
20260506080302 49 140 0.0 0.0 0.00 0.00 0.00 97 1017.8
20260506073246 50 160 0.0 0.0 0.00 0.00 0.00 96 1018.0
20260506072743 50 160 0.0 0.0 0.00 0.00 0.00 96 1018.2
20260506072241 50 160 0.0 0.0 0.00 0.00 0.00 96 1018.0
20260506071738 50 160 0.0 0.0 0.00 0.00 0.00 96 1018.0
20260506071236 51 160 0.0 0.0 0.00 0.00 0.00 96 1018.2
20260506070733 51 160 0.0 0.0 0.00 0.00 0.00 96 1018.0
20260506070230 51 160 0.0 0.0 0.00 0.00 0.00 95 1017.9
20260506062207 52 164 0.0 0.0 0.00 0.65 0.65 94 1017.5
20260506061703 52 164 0.0 0.0 0.00 0.65 0.65 94 1017.6
20260506061200 52 164 0.0 0.0 0.00 0.65 0.65 94 1017.6
20260506060659 53 164 0.0 0.0 0.00 0.65 0.65 93 1017.6
20260506060155 53 138 0.0 0.0 0.00 0.65 0.65 93 1017.6
20260506051127 53 156 0.0 1.0 0.00 0.65 0.65 92 1017.6
20260506050626 53 154 0.0 0.0 0.00 0.65 0.65 91 1017.4
20260506050122 53 155 0.0 0.0 0.00 0.65 0.65 90 1017.4
20260506045115 54 145 0.0 0.0 0.00 0.65 0.65 89 1017.4
20260506044613 54 143 0.0 0.0 0.00 0.65 0.65 90 1017.2
20260506044110 54 142 0.0 0.0 0.00 0.65 0.65 90 1017.2
20260506043607 54 146 0.0 0.0 0.00 0.65 0.65 89 1017.1
20260506043105 54 145 0.0 0.0 0.00 0.65 0.65 89 1016.8
20260506042604 54 145 0.0 0.0 0.00 0.65 0.65 88 1017.2
20260506042102 54 147 0.0 0.0 0.00 0.65 0.65 88 1017.1
20260506041600 54 117 0.0 0.0 0.00 0.65 0.65 88 1016.9
20260506041056 54 109 1.0 2.0 0.00 0.65 0.65 88 1016.8
20260506040555 54 123 1.0 1.0 0.00 0.65 0.65 87 1016.7
20260506040050 55 159 1.0 1.0 0.00 0.65 0.65 86 1016.7
20260506035548 54 159 0.0 1.0 0.00 0.65 0.65 86 1016.7
20260506035044 54 119 1.0 1.0 0.00 0.65 0.65 86 1016.5
20260506034542 54 121 0.0 0.0 0.00 0.65 0.65 86 1016.2
20260506034038 54 161 0.0 1.0 0.00 0.65 0.65 86 1016.5
20260506033536 55 164 1.0 1.0 0.00 0.65 0.65 85 1016.5
20260506033033 55 131 1.0 2.0 0.00 0.65 0.65 84 1016.2
20260506032530 55 195 1.0 1.0 0.00 0.65 0.65 84 1016.3
20260506032026 55 171 0.0 0.0 0.00 0.65 0.65 84 1015.8
20260506031524 55 161 0.0 1.0 0.00 0.65 0.65 83 1016.3
20260506031021 55 183 0.0 0.0 0.00 0.65 0.65 82 1016.2
20260506030519 56 192 1.0 1.0 0.00 0.65 0.65 81 1016.1
20260506030016 56 175 0.0 0.0 0.00 0.65 0.65 80 1015.9
20260506025513 56 171 0.0 0.0 0.00 0.65 0.65 79 1015.7
20260506025009 57 156 0.0 0.0 0.00 0.65 0.65 79 1015.9
20260506024507 57 143 0.0 0.0 0.00 0.65 0.65 78 1015.7
20260506024002 57 138 1.0 1.0 0.00 0.65 0.65 77 1015.7
20260506023459 57 121 1.0 1.0 0.00 0.65 0.65 76 1015.6
20260506022955 57 116 1.0 2.0 0.00 0.65 0.65 76 1015.5
20260506022454 58 101 1.0 1.0 0.00 0.65 0.65 75 1015.4
20260506021951 58 93 2.0 2.0 0.00 0.65 0.65 75 1015.3
20260506021448 58 197 3.0 3.0 0.00 0.65 0.65 74 1015.4
20260506020945 58 133 0.0 0.0 0.00 0.65 0.65 73 1015.3
20260506020443 59 137 1.0 2.0 0.00 0.65 0.65 72 1015.2
20260506015940 59 171 1.0 1.0 0.00 0.65 0.65 71 1015.3
20260506015437 59 165 3.0 3.0 0.00 0.65 0.65 70 1015.1
20260506014934 59 138 0.0 1.0 0.00 0.65 0.65 72 1015.3
20260506014431 59 188 1.0 1.0 0.00 0.65 0.65 71 1015.3
20260506013927 60 176 1.0 1.0 0.00 0.65 0.65 71 1015.3
20260506013426 60 155 2.0 2.0 0.00 0.65 0.65 68 1014.9
20260506012922 60 204 3.0 3.0 0.00 0.65 0.65 68 1015.0
20260506012418 60 202 2.0 3.0 0.00 0.65 0.65 68 1014.9
20260506011915 60 177 2.0 3.0 0.00 0.65 0.65 70 1014.9
20260506011413 61 206 3.0 3.0 0.00 0.65 0.65 68 1014.8
20260506010909 62 207 1.0 1.0 0.00 0.65 0.65 67 1014.8
20260506010408 62 144 3.0 3.0 0.00 0.65 0.65 66 1014.8
20260506005904 61 139 4.0 7.0 0.00 0.65 0.65 67 1014.9
20260506005402 62 167 3.0 3.0 0.00 0.65 0.65 65 1014.9
20260506004857 62 123 3.0 5.0 0.00 0.65 0.65 65 1014.7
20260506004355 62 201 5.0 6.0 0.00 0.65 0.65 66 1014.7
20260506003851 62 143 2.0 3.0 0.00 0.65 0.65 67 1014.7
20260506003347 62 179 2.0 2.0 0.00 0.65 0.65 67 1014.6
20260506002844 62 87 5.0 7.0 0.00 0.65 0.65 67 1014.7
20260506002340 63 168 3.0 3.0 0.00 0.65 0.65 64 1014.6
20260506001836 64 204 5.0 6.0 0.00 0.65 0.65 61 1014.6
20260506001333 64 195 3.0 5.0 0.00 0.65 0.65 61 1014.7
20260506000830 63 159 2.0 2.0 0.00 0.65 0.65 63 1014.5
20260506000330 63 109 3.0 6.0 0.00 0.65 0.65 64 1014.6
20260505235824 64 190 3.0 3.0 0.00 0.65 0.65 63 1014.6
20260505235322 64 183 1.0 1.0 0.00 0.65 0.65 64 1014.6
20260505234819 63 75 4.0 7.0 0.00 0.65 0.65 65 1014.5
20260505234317 64 157 4.0 5.0 0.00 0.65 0.65 63 1014.5
20260505233813 64 171 1.0 1.0 0.00 0.65 0.65 64 1014.7
20260505233311 63 163 3.0 3.0 0.00 0.65 0.65 65 1014.7
20260505232808 63 135 3.0 3.0 0.00 0.65 0.65 64 1014.6
20260505232306 63 195 5.0 8.0 0.00 0.65 0.65 66 1014.5
20260505231802 63 124 3.0 5.0 0.00 0.65 0.65 61 1014.5
20260505231301 63 88 3.0 3.0 0.00 0.65 0.65 61 1014.3
20260505230758 63 93 9.0 11.0 0.00 0.65 0.65 61 1014.5
20260505230255 64 188 4.0 5.0 0.00 0.65 0.65 61 1014.5
20260505225752 64 110 2.0 3.0 0.00 0.65 0.65 59 1014.5
20260505225249 65 124 9.0 13.0 0.00 0.65 0.65 59 1014.6
20260505224743 63 133 1.0 3.0 0.00 0.65 0.65 62 1014.5
20260505224242 65 132 6.0 8.0 0.00 0.65 0.65 60 1014.6
20260505223739 64 152 8.0 10.0 0.00 0.65 0.65 60 1014.6
20260505223235 65 165 3.0 3.0 0.00 0.65 0.65 59 1014.8
20260505222731 65 126 7.0 9.0 0.00 0.65 0.65 57 1014.7
20260505222227 65 124 9.0 11.0 0.00 0.65 0.65 57 1014.5
20260505221725 64 153 2.0 3.0 0.00 0.65 0.65 60 1014.7
20260505221221 64 111 5.0 8.0 0.00 0.65 0.65 59 1014.8
20260505220718 64 97 5.0 7.0 0.00 0.65 0.65 60 1014.8
20260505220216 64 70 7.0 10.0 0.00 0.65 0.65 56 1015.1
20260505215714 65 44 1.0 1.0 0.00 0.65 0.65 59 1014.9
20260505215212 64 163 9.0 13.0 0.00 0.65 0.65 58 1014.9
20260505214709 65 101 6.0 7.0 0.00 0.65 0.65 57 1014.9
20260505214206 65 78 4.0 7.0 0.00 0.65 0.65 57 1015.0
20260505213704 65 84 5.0 9.0 0.00 0.65 0.65 58 1015.1
20260505213201 64 91 11.0 16.0 0.00 0.65 0.65 56 1015.0
20260505212656 65 164 2.0 2.0 0.00 0.65 0.65 61 1015.1
20260505212154 64 185 4.0 5.0 0.00 0.65 0.65 62 1015.3
20260505211651 65 105 6.0 8.0 0.00 0.65 0.65 56 1015.3
20260505211148 65 134 4.0 7.0 0.00 0.65 0.65 63 1015.4
20260505210644 64 182 2.0 2.0 0.00 0.65 0.65 60 1015.4
20260505210141 63 93 3.0 5.0 0.00 0.65 0.65 61 1015.5
20260505205639 64 190 7.0 9.0 0.00 0.65 0.65 62 1015.4
20260505205137 65 94 3.0 3.0 0.00 0.65 0.65 58 1015.4
20260505204633 65 171 2.0 3.0 0.00 0.65 0.65 59 1015.5
20260505204131 65 203 3.0 3.0 0.00 0.65 0.65 61 1015.3
20260505203628 63 177 9.0 13.0 0.00 0.65 0.65 64 1015.4
20260505203125 64 215 4.0 6.0 0.00 0.65 0.65 65 1015.4
20260505202620 64 121 4.0 6.0 0.00 0.65 0.65 62 1015.3
20260505202116 64 185 5.0 6.0 0.00 0.65 0.65 63 1015.3
20260505201613 64 166 6.0 10.0 0.00 0.65 0.65 59 1015.4
20260505201111 67 94 3.0 3.0 0.00 0.65 0.65 55 1015.4
20260505200609 66 78 5.0 7.0 0.00 0.65 0.65 55 1015.3
20260505200106 65 92 4.0 5.0 0.00 0.65 0.65 52 1015.4
20260505195601 65 138 6.0 7.0 0.00 0.65 0.65 55 1015.4
20260505195059 65 171 2.0 2.0 0.00 0.65 0.65 51 1015.5
20260505194556 65 167 4.0 6.0 0.00 0.65 0.65 52 1015.7
20260505194052 64 177 3.0 5.0 0.00 0.65 0.65 56 1015.5
20260505193549 65 146 1.0 2.0 0.00 0.65 0.65 58 1015.6
20260505193046 64 194 3.0 6.0 0.00 0.65 0.65 59 1015.6
20260505192545 65 177 2.0 3.0 0.00 0.65 0.65 55 1015.7
20260505192042 64 141 6.0 8.0 0.00 0.65 0.65 54 1015.6
20260505191540 65 124 9.0 11.0 0.00 0.65 0.65 57 1015.6
20260505191038 64 145 4.0 6.0 0.00 0.65 0.65 57 1015.5
20260505190532 63 66 7.0 9.0 0.00 0.65 0.65 60 1015.8
20260505190028 62 96 4.0 6.0 0.00 0.65 0.65 61 1015.7
20260505185525 63 48 5.0 7.0 0.00 0.65 0.65 61 1015.7